sat.trackr.live / text

‹ back to catalog

ONEWEB-0357

NORAD 49219 · 2021-083AK

PAYLOAD ACTIVE UNKNOWN

§ Identity

Operator
Country
UK
Launch date
2021-09-14
Launch site
TYMSC
Launch vehicle
Mass (kg)
RCS (m²)

Purposes: comms

External: N2YO · Heavens-Above · Gunter

§ Orbital elements

Epoch: 2026-09-08T11:06:25.138944Z

Period
109.03 min
Inclination
87.9137°
Eccentricity
0.0001760
Mean motion
13.20774112 rev/d
Perigee alt
1,180.4 km
Apogee alt
1,183.1 km
Semi-major
7,559.9 km
B*
1.5635e-4
RAAN
257.8222°
Arg perigee
85.8246°
Mean anomaly
274.3089°
Rev number
24,780

§ Raw data

ONEWEB-03571 49219U 21083AK  26251.46279096  .00000077  00000+0  15635-3 0  99942 49219  87.9137 257.8222 0001760  85.8246 274.3089 13.20774112247809

JSON: /api/v1/satellites/49219 · /tle

For live sub-satellite position, see the globe view (requires WebGL).

§ Visibility from observer

Set your observer location to see the next 7 days of passes ≥ 10°. The values pass through the URL so the page stays shareable.

No JS? Fill the form by hand. The geolocation button needs JavaScript.